User: anonymous   Login
Location: Cypress Hills Dark-Sky Preserve - CHICO
(49.6176°N, 110.2634°W)
Time: 19:00:31
(UTC-06:00)
Language:

SPOT 5 - Orbit

View from above orbital plane
View from above orbital plane
View from above satellite
View from above satellite

Ground track
Ground track

The orbit data is extracted from the following two-line orbital elements,

1 27421U 02021A   16237.45087099  .00000074  00000-0  27841-4 0  9999
2 27421  98.4502 293.7352 0135879 156.0073 204.7533 14.51811652742610
Epoch (UTC): 24 August 2016 10:49:15
Eccentricity: 0.0135879
inclination: 98.4502°
perigee height: 623 km
apogee height: 816 km
right ascension of ascending node: 293.7352°
argument of perigee: 156.0073°
revolutions per day: 14.51811652
mean anomaly at epoch: 204.7533°
orbit number at epoch: 74261

The dashed part of the orbit path shows where the satellite is in the earth's shadow,  

DLR